Regional Weather Roundup
Issued by NWS Midland/Odessa, TX

Skip options and go directly to product.
Home | Oldest Version | Next Version | Current Version | All | Text Only | Save Text | Print | Product List | Glossary On

Skip product version selection by date and time.   
897
ASUS44 KMAF 300402
RWRMAF
MIDLAND AREA WEATHER ROUNDUP
NATIONAL WEATHER SERVICE MIDLAND TX
1100 PM CDT WED OCT 29 2014

...IN SOUTHWEST TEXAS AND SOUTHEAST NEW MEXICO...

CITY           SKY/WX    TMP DP  RH WIND       PRES   REMARKS
ALPINE         CLEAR     57  51  80 S5        30.28R
ANDREWS        FAIR      62  51  67 S8        30.14F
ARTESIA        NOT AVBL
BIG SPRING     CLEAR     65  52  63 E6        30.15R
CARLSBAD       CLEAR     60  51  72 S12       30.14S
DRYDEN           N/A     69  60  73 NE6       30.11S
FORT STOCKTON  CLEAR     64  54  69 SE6       30.15S
GUAD PASS      NOT AVBL
HOBBS          CLEAR     54  48  82 CALM      30.17F
MARFA          CLEAR     55  50  82 NE6       30.25S
MIDLAND AIRPK  CLEAR     68  54  61 S13       30.14F
MIDLAND INTL   CLEAR     66  52  60 S12       30.14S
ODESSA         CLEAR     67  52  58 S12       30.15S
PECOS          CLEAR     63  54  71 CALM      30.13S
PRESIDIO       FAIR      73  55  52 NE12G18   30.11R
SEMINOLE       CLEAR     56  49  77 CALM      30.16S
SNYDER         CLEAR     60  48  63 SE7       30.13S
WINK           CLEAR     60  50  69 CALM      30.13S
$$
...OTHER STATIONS IN TEXAS...

CITY           SKY/WX    TMP DP  RH WIND       PRES   REMARKS
ABILENE        CLEAR     63  48  58 SE10      30.12F
AMARILLO       CLEAR     54  42  64 S13       30.14R
AUSTIN         PTCLDY    62  59  90 CALM      30.13R
BROWNSVILLE    CLEAR     72  69  90 S3        30.07S
CORPUS CHRISTI MOCLDY    71  67  87 S5        30.07S
DALLAS FTW     CLEAR     60  43  53 SE7       30.14R
DEL RIO        CLEAR     73  64  73 E7        30.08R
EL PASO        CLEAR     63  43  48 NE7       30.15S
HOUSTON INT    CLEAR     64  62  93 E8        30.12S
LUBBOCK        CLEAR     55  44  66 SE8       30.15R
SAN ANGELO     CLEAR     64  54  69 S7        30.13F
SAN ANTONIO    PTCLDY    71  61  70 E7        30.12R
WACO           CLEAR     61  49  64 E6        30.13F
WICHITA FALLS  NOT AVBL
$$
...OTHER LOCATIONS IN NEW MEXICO...

CITY           SKY/WX    TMP DP  RH WIND       PRES   REMARKS
ALAMAGORDO     NOT AVBL
ALBUQUERQUE    CLEAR     55  16  21 CALM      30.26R
CANNON AFB     CLEAR     53  41  63 SW3       30.16R
CLOVIS         CLEAR     50  39  66 SW9       30.19R
HOLLOMAN AFB   CLEAR     57  34  42 E3        30.16S
ROSWELL        CLEAR     55  48  77 SW9       30.14F
RUIDOSO        CLEAR     54  27  35 W7        30.31F
SANTA FE       CLEAR     44  11  26 N7        30.26F
TRUTH OR CONSE CLEAR     58  35  42 NW9       30.21R
TUCUMCARI      CLEAR     59  43  55 S14       30.09F
$$

USA.gov is the U.S. government's official web portal to all federal, state and local government web resources and services.